[[{"header":{"parameterUnit":"m.s-1","parameterCategory":1,"la1":30.2992,"la2":30.254,"lo1":-89.0895,"lo2":-89.0443,"dy":0.0025,"dx":0.0025,"nx":19,"ny":19,"refTime":"2026-05-22T09:00:00:Z","depth":0,"parameterNumber":2,"parameterNumberName":"U-component_of_WINDS"},"data":[0,0,0,-1.4486,-1.4491,-1.4731,-1.4732,-1.5026,-1.5028,0,0,0,0,0,0,0,0,0,0,0,-1.4403,-1.4404,-1.4486,-1.4491,-1.4731,-1.4732,-1.5025,-1.5028,0,0,0,0,0,0,0,0,0,0,0,-1.4402,-1.4404,-1.4406,-1.4492,-1.4731,-1.4732,-1.5025,-1.4849,0,0,0,0,0,0,0,0,0,0,-1.4619,-1.4529,-1.4403,-1.4406,-1.4493,-1.4731,-1.4732,-1.4841,-1.486,-1.491,0,-1.4947,0,-1.4992,-1.5046,-1.5047,0,0,0,-1.4502,-1.4513,-1.4588,-1.4406,-1.4495,-1.473,-1.4626,-1.4852,-1.4874,-1.4935,-1.4951,-1.4963,-1.4997,-1.5048,-1.505,-1.5293,-1.5293,0,0,-1.4488,-1.444,-1.4573,-1.4602,-1.4559,-1.4618,-1.4633,-1.4865,-1.4882,-1.4953,-1.497,-1.5001,-1.505,-1.5052,-1.5292,-1.5293,0,0,0,-1.4443,-1.4431,-1.4501,-1.4589,-1.4633,-1.4625,-1.4642,-1.4871,-1.4898,-1.4973,-1.5005,-1.5052,-1.5055,-1.5291,-1.5292,-1.5277,0,0,0,-1.4436,-1.4405,-1.4494,-1.4468,-1.4628,-1.4754,-1.4642,-1.4882,-1.491,-1.5003,-1.5052,-1.5058,-1.5291,-1.5292,-1.5276,-1.5278,0,0,0,-1.4392,-1.44,-1.443,-1.4465,-1.4565,-1.4752,-1.4792,-1.4889,-1.4928,-1.5048,-1.5058,-1.529,-1.5292,-1.5275,-1.5277,-1.5328,0,0,0,-1.4331,-1.4414,-1.4428,-1.4534,-1.4563,-1.4739,-1.4791,-1.4926,-1.5026,-1.5053,-1.5291,-1.5292,-1.5275,-1.5276,-1.5327,-1.5362,-1.5372,0,0,-1.441,-1.4422,-1.4488,-1.4508,-1.4668,-1.4706,-1.4867,-1.5006,-1.5063,-1.5214,-1.5221,-1.5276,-1.5277,-1.5328,-1.5445,-1.5453,0,0,0,-1.4497,-1.4543,-1.4596,-1.4688,-1.4793,-1.4886,-1.5004,-1.5057,-1.5186,-1.5129,-1.531,-1.5312,-1.5344,-1.5364,-1.537,-1.5401,-1.5299,-1.5299,-1.5299,-1.454,-1.4605,-1.4719,-1.4814,-1.4902,-1.5024,-1.5103,-1.5194,-1.5237,-1.5278,-1.5324,-1.5386,-1.5407,-1.5412,-1.5444,-1.5348,-1.5348,-1.5348,-1.5348,-1.4661,-1.4738,-1.479,-1.4919,-1.499,-1.5101,-1.5222,-1.5249,-1.5364,-1.5358,-1.539,-1.5376,-1.5418,-1.545,-1.5347,-1.5347,-1.5347,-1.5347,-1.5348,-1.4696,-1.4745,-1.4804,-1.4943,-1.5044,-1.5139,-1.5246,-1.5308,-1.5367,-1.5398,-1.5453,-1.5453,-1.5462,-1.5419,-1.542,-1.542,-1.542,-1.542,-1.542,-1.471,-1.4777,-1.4859,-1.4977,-1.5044,-1.5141,-1.5264,-1.5333,-1.5426,-1.5462,-1.5463,-1.5502,-1.5409,-1.5385,-1.5424,-1.5424,-1.5423,-1.5423,-1.5422,-1.4809,-1.4796,-1.4921,-1.4988,-1.5133,-1.523,-1.5306,-1.5441,-1.5508,-1.5559,-1.5592,-1.5513,-1.5532,-1.5527,-1.5507,-1.5576,-1.5576,-1.5576,-1.5576,-1.4839,-1.4854,-1.4995,-1.5098,-1.5206,-1.5288,-1.5431,-1.5528,-1.5628,-1.5674,-1.5673,-1.5652,-1.5644,-1.5667,-1.566,-1.5642,-1.5744,-1.5744,-1.5745,-1.4905,-1.4932,-1.504,-1.5133,-1.5251,-1.5353,-1.5489,-1.5609,-1.5719,-1.5753,-1.5711,-1.5704,-1.5671,-1.5656,-1.5688,-1.5675,-1.5644,0,0]},{"header":{"parameterUnit":"m.s-1","parameterCategory":1,"la1":30.2992,"la2":30.254,"lo1":-89.0895,"lo2":-89.0443,"dy":0.0025,"dx":0.0025,"nx":19,"ny":19,"refTime":"2026-05-22T09:00:00:Z","depth":0,"parameterNumber":3,"parameterNumberName":"V-component_of_WINDS"},"data":[0,0,0,4.0232,4.0234,4.0307,4.0308,4.0411,4.0412,0,0,0,0,0,0,0,0,0,0,0,4.0218,4.0219,4.0232,4.0234,4.0307,4.0308,4.0411,4.0412,0,0,0,0,0,0,0,0,0,0,0,4.0218,4.0219,4.022,4.0234,4.0307,4.0308,4.0411,4.0351,0,0,0,0,0,0,0,0,0,0,4.0278,4.0274,4.0219,4.022,4.0235,4.0307,4.0308,4.0348,4.0355,4.0382,0,4.0411,0,4.0413,4.042,4.042,0,0,0,4.0228,4.0268,4.0281,4.0221,4.0236,4.0307,4.0273,4.0352,4.036,4.0391,4.0412,4.0415,4.0415,4.042,4.0421,4.0601,4.0602,0,0,4.0224,4.0236,4.0276,4.0286,4.0278,4.027,4.0275,4.0356,4.0379,4.0412,4.0418,4.0416,4.0421,4.0422,4.06,4.0602,0,0,0,4.0216,4.0233,4.0243,4.0282,4.0295,4.0272,4.0278,4.0375,4.0378,4.0419,4.0418,4.0422,4.0423,4.0599,4.0601,4.0666,0,0,0,4.0214,4.0229,4.0242,4.025,4.0294,4.0337,4.0295,4.0372,4.0381,4.0417,4.0422,4.0424,4.0598,4.06,4.0662,4.0695,0,0,0,4.0211,4.0228,4.0242,4.025,4.0282,4.0335,4.0342,4.0374,4.0381,4.042,4.0425,4.0597,4.06,4.0658,4.0688,4.0743,0,0,0,4.0211,4.0301,4.0243,4.0342,4.0282,4.0376,4.0341,4.0411,4.0453,4.0422,4.0598,4.0601,4.0657,4.0684,4.0739,4.079,4.0813,0,0,4.033,4.0315,4.0373,4.0323,4.043,4.0364,4.048,4.0507,4.0501,4.0567,4.0572,4.0663,4.0688,4.0742,4.0943,4.0961,0,0,0,4.0414,4.0455,4.0481,4.0521,4.0545,4.0566,4.0574,4.0584,4.064,4.0538,4.0699,4.0713,4.0745,4.0768,4.0784,4.0809,4.0613,4.0612,4.0612,4.0599,4.0584,4.0677,4.0671,4.071,4.0717,4.0746,4.076,4.0736,4.0774,4.0793,4.0916,4.0944,4.0956,4.0982,4.0821,4.0821,4.0821,4.0821,4.077,4.0824,4.0787,4.0864,4.0847,4.0911,4.0919,4.0899,4.0954,4.0901,4.0928,4.0869,4.0977,4.0998,4.0826,4.0825,4.0825,4.0824,4.0824,4.0887,4.091,4.092,4.0975,4.1018,4.1009,4.1062,4.1046,4.1031,4.1058,4.1074,4.1073,4.1068,4.1068,4.1068,4.1069,4.1069,4.1069,4.1069,4.1004,4.1013,4.1061,4.1091,4.1113,4.1139,4.1145,4.1166,4.1184,4.1168,4.1168,4.1137,4.0991,4.0953,4.1076,4.1075,4.1074,4.1073,4.1073,4.1178,4.1136,4.1209,4.1231,4.1263,4.1305,4.1284,4.1327,4.1341,4.1368,4.1331,4.1227,4.121,4.1197,4.1165,4.1336,4.1336,4.1336,4.1336,4.1275,4.1265,4.1335,4.137,4.1403,4.139,4.1471,4.1475,4.1473,4.148,4.1454,4.1411,4.1399,4.1389,4.1372,4.1342,4.1554,4.1554,4.1554,4.138,4.1372,4.1445,4.1442,4.1465,4.1484,4.1558,4.1598,4.1588,4.1563,4.1485,4.1476,4.1407,4.1386,4.1358,4.1332,4.1276,0,0]}]]